Flag for Germany Weather past 2 weeks in Norden, Lower Saxony, Germany

Now
49 °F

Overcast.


Feels Like: 46 °F
Forecast: 47 / 63 °F
Wind: 8 mph from East

Location: Norderney


UV Index: 0 (Low)

Visibility: 6 mi


Pressure: 29.80 "Hg

Humidity: 90%

Dew point: 47 °F

Location of NordenLocation

Historic Weather in Norden

°F

Norden temperature yesterday

Maximum temperature yesterday: 59 °F (at 6:00 PM)
Minimum temperature yesterday: 49 °F (at 6:00 AM)
Average temperature yesterday: 53 °F

Past Weeks' High & Low Weather Summary

 TemperatureHumidityPressure
High63 °F (Apr 7, 6:00 PM)99% (Apr 6, 5:00 PM)30.47 "Hg (Apr 6, 5:00 PM)
Low40 °F (Apr 16, 7:00 AM)45% (Apr 16, 1:00 PM)29.61 "Hg (Apr 8, 6:00 AM)
Average49 °F83%30.04 "Hg
* Reported Apr 6 6:00 AM — Apr 21 6:00 AM, Norden, Weather by CustomWeather, © 2014

Note: Actual official high and low records may vary slightly from our data, if they occured in-between our weather recording intervals... More about our weather records

Advertising

Historic Weather Conditions — Data for Previous 24 hours

 ConditionsComfort  
Time TempWeatherWind HumidityBarometerVisibility
6:00 AM
Apr 21
49 °FFog.8 mph90%29.81 "Hg4 mi
5:00 AM49 °FPassing clouds.7 mph91%29.82 "Hg3 mi
4:00 AM49 °FPassing clouds.6 mph91%29.83 "Hg3 mi
3:00 AM50 °FClear.7 mph91%29.84 "Hg3 mi
2:00 AM51 °FPassing clouds.6 mph91%29.85 "Hg2 mi
1:00 AM53 °FClear.6 mph87%29.86 "Hg3 mi
12:00 AM53 °FPassing clouds.7 mph88%29.86 "Hg4 mi
11:00 PM
Apr 20
54 °FClear.8 mph85%29.86 "Hg4 mi
10:00 PM55 °FClear.8 mph84%29.84 "Hg4 mi
9:00 PM54 °FPassing clouds.8 mph84%29.84 "Hg7 mi
8:00 PM55 °FPassing clouds.9 mph81%29.82 "Hg11 mi
7:00 PM57 °FPassing clouds.9 mph77%29.82 "Hg11 mi
6:00 PM59 °FPassing clouds.10 mph71%29.83 "Hg9 mi
5:00 PM58 °FPassing clouds.9 mph75%29.83 "Hg7 mi
4:00 PM58 °FPassing clouds.10 mph74%29.85 "Hg6 mi
3:00 PM59 °FSunny.9 mph75%29.87 "Hg6 mi
2:00 PM57 °FSunny.9 mph76%29.89 "Hg6 mi
1:00 PM57 °FSunny.9 mph79%29.90 "Hg6 mi
12:00 PM54 °FSunny.10 mph82%29.90 "Hg6 mi
11:00 AM53 °FSunny.9 mph81%29.93 "Hg6 mi
10:00 AM54 °FSunny.7 mph79%29.94 "Hg6 mi
9:00 AM52 °FSunny.7 mph83%29.96 "Hg6 mi
8:00 AM50 °FPassing clouds.8 mph86%29.96 "Hg6 mi
7:00 AM49 °FSunny.9 mph87%29.95 "Hg6 mi
Weather by CustomWeather, © 2014

See weather overview